Regional Weather Roundup
Issued by NWS Goodland, KS

Home | Current Version | Previous Version | Graphics & Text | Print | Product List | Glossary On
Versions: 1 2 3 4 5 6 7 8 9 10 11 12 13 14 15 16 17 18 19 20 21 22 23 24 25 26 27 28 29 30 31 32 33 34 35 36 37 38 39 40 41 42 43 44 45 46 47 48 49 50
000
ASUS43 KGLD 230959
RWRGLD

GOODLAND FORECAST AREA HOURLY WEATHER ROUNDUP
NATIONAL WEATHER SERVICE GOODLAND KS
300 AM MST THU FEB 23 2017

...OFFICIAL OBSERVATIONS...

CITY           SKY/WX    TMP DP  RH WIND       PRES   REMARKS
GOODLAND KS    CLOUDY    36  27  69 E14       29.62F
HILL CITY KS   CLOUDY    44  33  65 NE14      29.67F
IMPERIAL NEB   CLOUDY    35  30  82 NE20      29.71F
MCCOOK NEB     CLOUDY    39  35  86 NE18      29.70F
AKRON CO       CLOUDY    33  29  85 E24G35    29.63F
BURLINGTON CO  CLEAR     36  25  64 E14       29.61F
LIMON CO       CLOUDY    22  17  81 N9        29.62S
$$

...UNOFFICIAL OBSERVATIONS...

CITY           SKY/WX    TMP DP  RH WIND       PRES   REMARKS
LENORA KS        N/A     41  32  70 NE7         N/A
NORTON KS      PTCLDY    39  30  70 NE14G20   29.69
SHARON SPRINGS   N/A     44  30  57 E13G22      N/A
TRENTON NEB      N/A     37  32  82 NE12        N/A
KIT CARSON CO    N/A     39  23  53 MISG        N/A
YUMA CO        CLOUDY    32  30  93 NE21G29   29.66S WCI  20
$$




USA.gov is the U.S. government's official web portal to all federal, state and local government web resources and services.